Flag for Canada Weather past 2 weeks in Calgary, Alberta, Canada

Now
68 °F

Broken clouds.


Feels Like: 68 °F
Forecast: 55 / 70 °F
Wind: 5 mph from Southeast

Location: Calgary International

Current Time: Jul 4, 2015 at 11:32:22 AM

Latest Report: Jul 4, 2015 at 11:00 AM


Visibility: 30 mi

Pressure: 29.92 "Hg (26.43 "Hg at 1063m altitude)

Humidity: 46%

Dew point: 46 °F

Location of CalgaryLocation

Historic Weather in Calgary — Graph

°F

Calgary temperature yesterday

Maximum temperature yesterday: 84 °F (at 2:00 PM)
Minimum temperature yesterday: 59 °F (at 6:00 AM)
Average temperature yesterday: 74 °F

Past Weeks' High & Low Weather Summary

 TemperatureHumidityPressure
High86 °F (Jun 27, 3:00 PM)94% (Jun 30, 3:00 AM)30.19 "Hg (Jun 30, 3:00 AM)
Low41 °F (Jun 22, 5:00 AM)23% (Jun 19, 6:00 PM)29.77 "Hg (Jul 3, 9:00 PM)
Average66 °F58%30.02 "Hg
* Reported Jun 19 10:00 AM — Jul 4 10:00 AM, Calgary, Weather by CustomWeather, © 2015

Note: Actual official high and low records may vary slightly from our data, if they occured in-between our weather recording intervals... More about our weather records

Advertising

Calgary weather history for previous 24 hours

 ConditionsComfort  
Time TempWeatherWind HumidityBarometerVisibility
10:00 AM
Sat, Jul 4
66 °FPartly sunny.6 mph49%29.93 "Hg30 mi
9:00 AM64 °FPartly sunny.No wind56%29.94 "Hg30 mi
8:00 AM63 °FPartly sunny.No wind56%29.92 "Hg40 mi
7:00 AM61 °FPartly sunny.3 mph59%29.92 "Hg40 mi
6:00 AM61 °FPassing clouds.No wind59%29.92 "Hg30 mi
5:00 AM61 °FOvercast.6 mph59%29.91 "Hg15 mi
4:00 AM61 °FPassing clouds.9 mph63%29.91 "Hg15 mi
3:00 AM59 °FPassing clouds.10 mph68%29.90 "Hg15 mi
2:00 AM61 °FPassing clouds.10 mph68%29.88 "Hg15 mi
1:00 AM63 °FPassing clouds.9 mph64%29.85 "Hg15 mi
12:00 AM64 °FPassing clouds.14 mph64%29.83 "Hg15 mi
11:00 PM
Fri, Jul 3
70 °FPassing clouds.9 mph64%29.80 "Hg15 mi
10:00 PM72 °FThunderstorms. Broken clouds.7 mph61%29.78 "Hg20 mi
9:00 PM77 °FBroken clouds.7 mph47%29.77 "Hg30 mi
8:00 PM81 °FBroken clouds.9 mph37%29.78 "Hg30 mi
7:00 PM82 °FPartly sunny.6 mph35%29.79 "Hg40 mi
6:00 PM82 °FPartly sunny.10 mph32%29.80 "Hg40 mi
5:00 PM84 °FScattered clouds.9 mph31%29.80 "Hg40 mi
4:00 PM84 °FScattered clouds.13 mph29%29.80 "Hg40 mi
3:00 PM84 °FScattered clouds.5 mph29%29.83 "Hg40 mi
2:00 PM84 °FPassing clouds.7 mph31%29.84 "Hg40 mi
1:00 PM81 °FScattered clouds.15 mph32%29.85 "Hg40 mi
12:00 PM82 °FScattered clouds.8 mph28%29.86 "Hg40 mi
11:00 AM81 °FScattered clouds.10 mph30%29.87 "Hg40 mi
Weather by CustomWeather, © 2015

See weather overviewHow to use our weather pages